Regional Weather Roundup
Issued by NWS Charleston, SC

Current Version | Previous Version | Graphics & Text | Print | Product List | Glossary On
Versions: 1 2 3 4 5 6 7 8 9 10 11 12 13 14 15 16 17 18 19 20 21 22 23 24 25 26 27 28 29 30 31 32 33 34 35 36 37 38 39 40 41 42 43 44 45 46 47 48 49 50
000
ASUS42 KCHS 231010
RWRCHS
REGIONAL WEATHER ROUNDUP
NATIONAL WEATHER SERVICE CHARLESTON SC
500 AM EST SUN NOV 23 2014

NOTE: "FAIR" INDICATES FEW OR NO CLOUDS BELOW 12,000 FEET WITH NO
SIGNIFICANT WEATHER AND/OR OBSTRUCTIONS TO VISIBILITY.

NOT ALL STATIONS ARE QUALITY CONTROLLED BY THE NATIONAL
WEATHER SERVICE. USE DATA WITH CAUTION...ESPECIALLY
DEWPOINT OBSERVATIONS.

SCZ027-030-031-034>040-042>050-231100-
...SOUTHEAST SOUTH CAROLINA...

CITY           SKY/WX    TMP DP  RH WIND       PRES   REMARKS
N CHARLESTON   RAIN      57  56  96 NE9       30.18F FOG
WATERFRONT PRK   N/A     59 N/A N/A N9          N/A
MOUNT PLEASANT CLOUDY    57  57 100 CALM      30.18S
JOHNS ISLAND   LGT RAIN  61  61 100 NE8       30.16F
PINOPOLIS      NOT AVBL
MONCKS CORNER  RAIN      57  57 100 CALM      30.21R
SUMMERVILLE    RAIN      55  55 100 NE5       30.19F
BEAUFORT MCAS  LGT RAIN  59  57  93 NE10      30.13F
BEAUFORT ARPT  LGT RAIN  59  59 100 NE9       30.13F
HILTON HEAD IS NOT AVBL
WALTERBORO     LGT RAIN  57 N/A N/A NE7       30.16F
ALLENDALE      LGT RAIN  55  55 100 VRB3      30.14F

...SOUTHERN MIDLANDS AND PEE DEE...

CITY           SKY/WX    TMP DP  RH WIND       PRES   REMARKS
GEORGETOWN     NOT AVBL
KINGSTREE      NOT AVBL
ORANGEBURG     RAIN      53  51  93 E8        30.18F FOG
BARNWELL       LGT RAIN  55  54  94 E6        30.17F
AIKEN          LGT RAIN  50  50 100 NE5       30.20F
MANNING        NOT AVBL
COLUMBIA       LGT RAIN  49  47  93 NE7       30.19F FOG
SUMTER         RAIN      49  49 100 NE6       30.20F
FLORENCE       LGT RAIN  49  47  93 CALM      30.24S
MYRTLE BEACH   CLOUDY    55  52  88 N6          N/A
N MYRTLE BEACH LGT RAIN  55  53  93 N5        30.24S

$$

GAZ063-065-086>088-099>101-113>116-118-119-134>141-150-231100-
...SOUTHEAST GEORGIA...

CITY           SKY/WX    TMP DP  RH WIND       PRES   REMARKS
SAVANNAH ARPT  HVY RAIN  61  57  88 NE10      30.10F FOG
HUNTER AAF     LGT RAIN  61  61 100 NE6       30.07F
FORT STEWART   HVY RAIN  61  59  94 NE8       30.06F FOG
STATESBORO     NOT AVBL
SYLVANIA       RAIN      58  57  97 E8        30.14S
CLAXTON        RAIN      59  59 100 NE8       30.09F

...CSRA...CENTRAL AND FAR SOUTHEAST GEORGIA...

CITY           SKY/WX    TMP DP  RH WIND       PRES   REMARKS
THOMSON        CLOUDY    50  50 100 CALM      30.20F
AUGUSTA-BUSH   RAIN      52  51  97 CALM      30.16F FOG
AUGUSTA-DANIEL RAIN      54  52  93 E8        30.16F FOG
SWAINSBORO     HVY RAIN  59  59 100 E9G16     30.11S
VIDALIA        RAIN      59  59 100 E10       30.08F
HAZLEHURST     RAIN      59  59 100 NE7       30.05F
ALMA           RAIN      60  59  96 E6        30.04S FOG
WAYCROSS       LGT RAIN  66  66  99 E7        30.02F
JESUP          HVY RAIN  64  63  94 E9        30.05F
BAXLEY         HVY RAIN  61  59  94 NE8       30.04F
BRUNSWICK      CLOUDY    66  63  88 E10       30.05F
SAINT SIMONS   RAIN      63  63 100 E12       30.04F FOG

$$

SCZ027-028-034-036>038-045-046-048>050-GAZ119-141-231100-
...LAKE AND SUPPLEMENTAL COASTAL OBSERVATIONS...

STATION/POSITION TIME  TEMP    WIND        PRES    WAVE   SWELL
                       AIR SEA DIR/SP/G            HT/PER HT/PER/DIR
                 (UTC) (F)     (DEG/KT/KT) (MB)    (FT/S) (FT/S/D)
UPR LAKE MARION  NOT AVBL
WINYAH BAY       0900   57      50/  4     1023.0S
LAKE MURRAY      0900   47      60/  2/  5 1022.4F
ACE BASIN NERRS  0900   57      30/  3     1021.0S
FORT PULASKI     1000   59      40/ 18/ 23 1019.2F
SAPELO ISLAND    NOT AVBL

$$

ANZ835-935-AMZ111-154-330-350-352-354-370-450-454-472-231100-
...C-MAN AND BUOY OBSERVATIONS...

STATION/POSITION TIME  TEMP    WIND        PRES    WAVE   SWELL
                       AIR SEA DIR/SP/G            HT/PER HT/PER/DIR
                 (UTC) (F)     (DEG/KT/KT) (MB)    (FT/S) (FT/S/D)
FOLLY BEACH CMAN 0900   58      40/ 11/ 12 1022.2F
BUOY 41004       1000   71 75   90/ 16/ 21 1020.5F   6/ 8   3/ 8
BUOY 41008       1000   67 64   90/ 10/ 12 1017.8F   6/ 7   5/120/ 7
CAPERS NEARSHORE 0900   59      60/ 10/ 12   N/A
FRIPP NEARSHORE  NOT AVBL


STATION/POSITION TIME  TEMP    WIND        PRES    WAVE   SWELL
                       AIR SEA DIR/SP/G            HT/PER HT/PER/DIR
                 (UTC) (F)     (DEG/KT/KT) (MB)    (FT/S) (FT/S/D)
5E ST. MARYS GA  1000      61                N/A     7/ 8
FRYING PAN BUOY  1000   65 62   90/  6/  8 1024.0F   3/ 8   3/130/ 8
BUOY 41025       1000   65     210/  8/ 10 1025.9F   2/ 8   2/ 60/ 8
CAPE LOOKOUT NC  0900   61     150/  6/  6 1025.0F
BUOY 41002       0948   70 73  150/ 17/ 19 1024.7F   4/ 8   3/ 90/ 8
BUOY 41010       1000   76 78  110/ 23/ 29 1018.1F   9/ 9   5/120/ 9
ST AUGUSTINE FL  1000   67     150/ 13/ 14 1016.3F


$$


USA.gov is the U.S. government's official web portal to all federal, state and local government web resources and services.